This demonstration page uses our WeatherBlox Daily Observations layout. Learn more.

Left ArrowRight Arrow

Hourly Observations for July 26, 2016

Temp ( °F °C ) Dew Point ( °F °C ) Humidity (%) Winds ( mph kmh ) Pressure ( in mb ) Visibility ( mi km ) Precip ( " mm )
12:33 am 00:33 Cloudy with Nearby Thunderstorms 85 29.4 57 13.9 39 39 S 22 35 29.80 1009 10 16 0.00 0.00
12:51 am 00:51 Mostly Cloudy 81 27.2 58 14.4 45 45 SSE 20 31 29.85 1011 10 16 0.00 0.03
1:12 am 01:12 Mostly Cloudy with Nearby Thunderstorms 80 26.7 60 15.6 51 51 S 12 19 29.83 1010 10 16 0.00 0.00
1:27 am 01:27 Mostly Clear 76 24.4 63 17.2 64 64 S 9 15 29.85 1011 10 16 0.00 0.00
1:51 am 01:51 Clear 78 25.6 61 16.1 56 56 ESE 6 9 29.85 1011 10 16 0.00 0.00
2:51 am 02:51 Clear 79 26.1 60 15.6 52 52 ENE 6 9 29.83 1010 10 16 0.00 0.00
3:51 am 03:51 Clear 79 26.1 60 15.6 52 52 E 10 17 29.81 1010 10 16 0.00 0.00
4:51 am 04:51 Clear 78 25.6 61 16.1 56 56 ESE 8 13 29.80 1009 10 16 0.00 0.00
5:51 am 05:51 Sunny 81 27.2 59 15 47 47 S 8 13 29.82 1010 10 16 0.00 0.00
6:51 am 06:51 Sunny 82 27.8 60 15.6 47 47 ESE 13 20 29.85 1011 10 16 0.00 0.00
7:51 am 07:51 Sunny 85 29.4 59 15 42 42 ESE 9 15 29.87 1012 10 16 0.00 0.00
8:51 am 08:51 Sunny 87 30.6 59 15 39 39 SSE 9 15 29.88 1012 10 16 0.00 0.00
9:51 am 09:51 Sunny 90 32.2 56 13.3 32 32 S 10 17 29.86 1011 10 16 0.00 0.00
10:51 am 10:51 Sunny 94 34.4 56 13.3 28 28 SSE 8 13 29.84 1011 10 16 0.00 0.00
11:51 am 11:51 Sunny 95 35 56 13.3 27 27 S 8 13 29.82 1010 10 16 0.00 0.00
12:51 pm 12:51 Sunny 97 36.1 54 12.2 24 24 VRB 5 7 29.78 1009 10 16 0.00 0.00
1:51 pm 13:51 Sunny 99 37.2 52 11.1 21 21 VRB 7 11 29.75 1008 10 16 0.00 0.00
2:51 pm 14:51 Sunny 102 38.9 51 10.6 18 18 W 13 20 29.71 1006 10 16 0.00 0.00
3:51 pm 15:51 Sunny 100 37.8 50 10 18 18 Calm 29.69 1005 10 16 0.00 0.00
4:51 pm 16:51 Sunny 100 37.8 52 11.1 20 20 SSW 14 22 29.67 1005 10 16 0.00 0.00
5:51 pm 17:51 Sunny 100 37.8 51 10.6 19 19 VRB 6 9 29.66 1004 10 16 0.00 0.00
6:07 pm 18:07 Sunny with Nearby Thunderstorms 99 37.2 52 11.1 21 21 NE 15 24 29.56 1001 10 16 0.00 0.00
6:19 pm 18:19 Partly Cloudy with Nearby Thunderstorms 98 36.7 52 11.1 21 21 NE 14 22 29.59 1002 10 16 0.00 0.00
6:51 pm 18:51 Mostly Cloudy 95 35 54 12.2 25 25 E 16 26 29.69 1005 10 16 0.00 0.00
7:51 pm 19:51 Partly Cloudy 94 34.4 53 11.7 25 25 ENE 17 28 29.70 1006 10 16 0.00 0.00
8:51 pm 20:51 Clear 93 33.9 53 11.7 26 26 WNW 8 13 29.74 1007 10 16 0.00 0.00
9:51 pm 21:51 Partly Cloudy 89 31.7 60 15.6 38 38 NNW 7 11 29.76 1008 10 16 0.00 0.00
10:51 pm 22:51 Mostly Cloudy 87 30.6 63 17.2 45 45 N 6 9 29.75 1008 10 16 0.00 0.03
11:51 pm 23:51 Mostly Clear 86 30 62 16.7 45 45 Calm 29.76 1008 10 16 0.00 0.00

Powered by AerisWeather